Wind_Speed
30 29 29 30 30 31 32 32 32 31 31 30 29 30 31 33 35 35 36 36 36 36 36 36 36 36 36 36 37 37 38 38 38 38 37 37 37 37 36 36 36 36 36 36
31 30 30 30 30 31 32 32 33 33 31 30 30 31 31 32 34 34 35 35 35 35 35 35 35 35 35 36 35 35 36 37 37 37 36 36 36 36 36 36 36 36 36 36
31 31 32 32 30 30 31 32 33 33 32 30 30 30 31 32 34 34 35 35 34 35 34 34 34 34 34 34 34 34 34 35 35 35 35 35 35 35 35 35 35 36 36 35
32 32 33 30 30 30 31 31 32 33 33 33 32 31 31 32 34 35 36 36 35 35 35 35 36 35 35 34 34 34 33 33 33 33 33 33 33 34 34 34 34 34 35 35
31 32 33 31 29 30 31 31 31 32 33 34 33 33 32 32 33 35 36 36 35 35 34 35 35 35 35 35 34 33 32 32 32 31 32 32 32 32 33 34 33 33 33 33
30 31 32 31 31 31 31 31 30 31 32 33 34 34 33 33 33 34 35 35 35 35 35 35 35 35 35 34 34 32 31 31 31 32 31 31 31 32 32 32 32 32 32 32
30 31 31 29 30 30 31 30 30 31 31 31 32 33 34 34 35 35 36 36 36 36 35 35 35 34 34 33 32 32 31 31 31 31 31 31 31 32 32 32 31 31 31 31
31 32 30 29 29 30 30 31 31 31 31 31 31 32 33 34 34 35 35 35 35 35 35 35 34 33 32 32 32 32 32 32 32 31 31 31 32 32 31 30 30 30 30 30
31 31 30 30 30 30 30 30 31 31 31 31 32 32 33 33 33 33 33 33 34 35 35 33 32 31 31 31 32 32 32 31 31 31 30 30 30 31 30 29 29 29 29 29
31 30 30 30 31 31 31 31 31 31 31 31 31 32 33 33 33 32 32 31 31 32 32 31 30 30 31 31 31 31 30 30 30 30 29 30 30 30 29 29 29 29 30 30
32 31 31 30 31 31 31 32 32 32 32 32 32 32 32 32 32 32 31 30 29 29 28 29 29 29 29 30 30 29 29 29 29 29 28 28 28 28 29 29 30 30 29 30
31 30 30 30 30 30 31 31 31 31 31 32 32 32 31 32 32 31 30 29 28 27 27 28 28 28 28 28 28 28 28 28 28 28 28 28 28 27 28 28 28 28 29 29
30 30 30 29 29 30 31 31 31 31 31 32 31 31 31 31 31 30 29 28 27 27 27 27 27 27 27 28 28 27 27 27 27 28 27 26 27 27 27 27 27 27 28 28
28 28 29 29 29 30 31 30 30 30 29 29 29 29 29 29 29 28 27 27 27 27 27 26 26 26 26 27 27 27 27 26 26 26 26 25 25 26 26 26 26 26 27 27
26 27 28 28 28 29 29 28 28 27 27 27 27 27 27 26 26 26 26 26 26 26 26 25 26 26 26 27 27 27 26 25 25 24 24 24 25 25 25 25 26 26 26 26
26 27 27 27 27 27 26 26 26 26 26 26 26 25 25 25 25 24 25 25 25 25 24 24 24 25 25 25 26 25 25 24 24 24 24 24 24 24 24 24 25 24 24 24
25 26 26 26 26 25 25 25 25 25 25 25 25 24 23 23 23 22 22 23 23 23 23 23 23 23 23 23 23 24 24 23 23 23 23 23 23 23 24 24 24 23 23 22
23 24 24 24 23 23 23 23 23 23 24 24 24 23 23 23 22 22 21 21 21 21 21 22 22 21 22 22 22 22 22 22 22 22 22 22 22 22 22 22 22 22 22 22
20 20 21 21 21 21 21 21 21 21 22 22 22 22 23 22 22 21 21 20 20 20 20 20 21 21 21 21 21 21 21 21 21 20 20 20 20 20 20 20 20 20 20 20
18 19 19 19 19 19 19 19 19 20 20 21 21 22 22 21 21 21 20 20 20 20 20 20 20 20 20 20 20 20 20 20 20 20 19 18 18 19 19 19 19 18 18 18
17 17 18 18 18 18 17 17 18 19 19 19 20 20 20 20 20 20 20 20 19 19 19 19 20 20 20 20 19 19 19 18 18 17 18 18 17 17 17 17 16 17 17 16
15 16 16 16 16 16 16 16 17 18 18 18 18 19 19 18 18 18 18 18 18 18 18 18 18 18 18 18 18 18 18 17 17 17 16 16 16 16 15 15 15 15 15 15
14 14 14 14 14 14 15 15 16 16 16 16 17 17 17 17 16 16 16 15 15 16 16 16 16 16 15 15 15 15 15 15 15 15 15 15 14 14 14 14 14 13 13 14
13 13 14 14 14 14 14 15 15 15 15 16 16 16 15 15 15 14 14 14 15 15 14 14 15 15 15 15 15 14 14 14 14 14 14 13 13 13 13 12 12 13 13 13
13 13 13 13 13 14 15 15 15 15 15 16 16 16 15 15 14 13 13 13 13 14 14 14 14 14 14 14 14 14 14 13 13 13 13 13 13 13 12 12 13 13 13 13
12 12 12 13 13 14 14 14 14 14 14 14 15 15 15 14 14 13 13 13 13 13 13 13 13 13 13 13 13 13 13 13 13 12 12 12 12 12 12 12 12 12 12 13
12 12 12 12 12 12 12 13 13 14 14 14 14 13 13 13 13 13 13 12 12 12 12 12 11 11 11 11 11 12 11 11 11 11 12 12 11 11 11 11 11 11 12 12
Wind_Direction
260 262 263 265 267 267 265 266 269 273 275 278 278 278 277 274 272 271 272 272 272 273 273 273 271 272 271 270 271 271 270 270 270 271 271 270 270 269 269 268 268 267 267 267
259 262 264 266 267 266 266 267 268 271 273 275 276 276 275 275 273 272 272 272 273 274 274 273 272 272 271 270 270 271 271 271 270 270 271 270 269 268 268 268 267 266 266 265
262 263 266 268 269 268 268 267 268 270 272 273 273 274 275 274 274 274 274 274 274 274 273 272 273 273 271 270 270 271 271 271 270 270 270 269 268 268 268 267 266 266 264 262
263 264 267 271 271 270 269 268 269 270 271 271 272 273 274 274 274 274 276 276 275 274 272 272 273 272 271 270 271 271 271 272 272 271 270 269 268 269 268 267 267 266 263 261
264 266 269 270 271 271 272 270 270 271 271 271 272 272 274 275 275 274 275 275 275 274 274 274 273 271 271 271 271 271 271 271 272 271 270 269 269 269 269 268 267 265 262 261
266 269 271 273 273 273 274 274 274 273 272 272 273 273 274 275 276 276 276 276 275 275 275 274 273 271 271 270 270 269 271 272 271 271 270 269 269 269 269 268 267 264 262 262
267 271 273 274 274 275 273 275 275 275 275 275 276 276 276 277 277 276 277 276 275 276 275 275 274 272 270 269 268 268 270 272 271 270 269 269 268 269 269 268 265 263 262 262
267 270 273 272 273 273 274 274 274 275 276 277 278 278 280 281 280 278 276 275 275 275 275 275 274 271 269 269 269 270 271 271 270 270 269 268 267 268 268 266 263 263 263 264
268 271 273 272 271 272 273 274 275 276 278 279 280 280 281 283 283 281 279 277 276 275 275 274 272 269 268 269 270 270 271 271 270 269 268 266 267 267 266 263 262 264 264 264
269 271 271 271 270 271 271 273 274 276 278 279 281 282 283 283 283 281 278 278 278 277 275 272 270 270 270 269 270 269 270 269 268 267 266 266 267 266 264 262 262 263 263 263
270 272 271 270 269 270 272 273 274 275 277 279 281 282 283 283 282 280 279 279 278 277 274 271 270 269 270 269 268 267 268 269 268 267 266 266 265 264 264 263 263 262 263 264
271 271 269 269 269 271 273 274 275 276 277 279 281 281 281 282 281 280 279 279 278 277 275 272 270 268 269 268 268 268 269 270 270 269 269 266 264 264 264 265 264 263 264 265
269 268 269 270 271 273 275 275 275 276 277 278 279 280 281 282 281 279 278 278 278 277 275 273 270 269 269 270 270 270 271 271 270 271 269 266 265 266 266 266 266 266 265 265
267 267 267 269 272 274 274 275 276 276 277 278 280 281 282 282 281 279 277 277 278 277 275 272 270 270 270 270 270 271 272 271 270 270 268 267 267 267 267 267 266 266 265 264
265 266 268 270 272 273 274 274 274 275 276 278 281 283 284 284 282 280 279 279 278 277 276 273 271 271 270 270 269 270 270 270 269 268 266 266 266 266 266 266 265 266 266 265
265 267 269 271 273 274 274 274 274 275 277 279 282 283 284 286 284 281 279 278 277 276 275 274 273 272 270 269 268 268 269 269 267 266 265 265 265 266 266 265 265 266 265 263
267 268 269 271 272 273 273 274 275 276 279 280 282 283 285 286 284 282 280 278 277 275 273 273 274 272 271 270 267 267 267 267 268 268 266 265 265 267 267 267 266 265 264 262
270 270 269 270 271 272 274 275 275 275 277 279 280 282 284 285 283 281 280 279 277 276 275 274 274 273 271 270 268 267 266 266 267 268 266 266 266 267 267 268 267 266 264 261
271 271 270 270 270 272 274 276 276 276 277 278 279 281 283 283 281 279 278 277 277 277 277 275 275 273 272 271 268 267 265 265 266 267 267 268 268 268 268 268 267 267 265 262
271 271 271 271 272 274 276 276 277 278 279 281 282 284 283 281 279 278 278 278 277 277 276 274 274 273 272 271 269 267 266 266 266 265 265 268 269 269 269 268 267 266 265 263
274 272 271 272 273 275 276 278 279 280 281 283 285 286 285 283 280 278 278 278 277 277 276 274 273 273 271 269 267 266 266 267 266 264 263 265 268 268 267 266 266 266 264 263
275 272 272 272 272 275 277 279 281 282 283 285 287 287 287 285 281 279 279 278 277 277 276 276 276 275 273 269 266 266 267 266 264 263 264 265 265 264 264 265 265 265 262 262
276 275 275 275 276 278 279 282 284 286 287 288 290 291 290 287 284 281 279 278 279 279 277 276 276 275 272 267 266 267 265 263 262 261 262 262 261 261 261 261 261 261 261 260
277 277 278 278 277 279 282 285 286 287 287 289 291 291 289 287 284 282 280 278 280 281 280 278 275 273 271 267 266 266 265 263 261 259 259 259 258 258 259 259 259 260 262 261
279 280 281 280 280 281 283 285 286 286 286 288 290 289 288 286 284 283 284 283 282 281 281 279 275 271 270 269 268 266 265 262 259 257 257 259 258 257 257 258 259 259 259 259
282 284 284 283 283 284 285 286 287 287 288 290 290 289 287 286 285 286 285 285 284 283 284 281 276 272 271 270 268 264 260 256 254 255 256 257 258 258 257 259 259 258 257 258
283 285 285 286 287 288 289 289 289 289 290 291 290 289 287 286 286 286 286 287 289 288 285 280 276 273 272 270 267 262 256 253 254 257 256 255 255 256 256 257 258 257 257 260
Height
5607 5608 5608 5608 5609 5608 5608 5607 5607 5607 5607 5607 5606 5604 5603 5601 5601 5600 5600 5599 5598 5597 5596 5595 5595 5594 5593 5593 5592 5591 5590 5589 5589 5588 5588 5587 5586 5586 5586 5586 5586 5586 5586 5586
5598 5599 5598 5599 5600 5600 5599 5599 5598 5598 5598 5598 5596 5595 5594 5592 5591 5591 5590 5589 5588 5587 5587 5586 5585 5584 5583 5582 5581 5580 5580 5579 5578 5578 5577 5576 5576 5576 5575 5575 5575 5576 5576 5576
5589 5590 5589 5591 5593 5591 5591 5590 5590 5589 5590 5589 5588 5587 5585 5583 5582 5581 5580 5579 5579 5578 5577 5576 5575 5574 5573 5572 5571 5570 5570 5569 5568 5567 5567 5566 5565 5565 5565 5565 5565 5565 5565 5566
5580 5581 5580 5586 5584 5583 5581 5581 5581 5580 5580 5579 5579 5578 5576 5575 5573 5572 5571 5570 5568 5568 5567 5566 5565 5564 5563 5562 5561 5561 5560 5559 5558 5557 5557 5556 5556 5555 5555 5555 5555 5555 5555 5556
5571 5570 5572 5576 5575 5574 5572 5572 5573 5572 5571 5570 5569 5569 5568 5566 5564 5562 5561 5560 5559 5557 5556 5555 5554 5553 5553 5552 5552 5551 5550 5549 5549 5548 5547 5547 5547 5546 5546 5545 5545 5545 5546 5547
5563 5562 5563 5568 5567 5564 5563 5563 5564 5562 5561 5561 5560 5560 5560 5557 5555 5553 5551 5550 5549 5547 5546 5545 5544 5543 5543 5542 5542 5541 5541 5540 5539 5539 5538 5538 5538 5537 5537 5536 5536 5536 5537 5537
5555 5553 5555 5558 5557 5555 5556 5557 5555 5553 5552 5551 5551 5550 5549 5547 5545 5543 5542 5540 5539 5537 5536 5535 5534 5533 5533 5532 5532 5531 5531 5531 5530 5530 5529 5529 5528 5528 5527 5527 5527 5528 5528 5529
5547 5546 5550 5549 5547 5547 5546 5545 5545 5544 5543 5542 5541 5540 5538 5537 5535 5534 5532 5530 5529 5528 5527 5525 5524 5523 5523 5523 5522 5522 5522 5522 5521 5521 5520 5520 5519 5519 5519 5518 5519 5519 5520 5520
5540 5541 5540 5539 5538 5537 5537 5536 5535 5535 5534 5533 5532 5531 5529 5527 5526 5524 5522 5521 5519 5518 5517 5515 5514 5514 5514 5514 5513 5513 5513 5512 5512 5511 5511 5511 5511 5510 5510 5510 5511 5511 5512 5512
5530 5531 5530 5529 5529 5528 5528 5527 5526 5526 5525 5524 5523 5521 5520 5518 5516 5514 5513 5511 5510 5508 5507 5506 5506 5505 5505 5504 5504 5504 5503 5503 5503 5502 5503 5502 5502 5502 5502 5502 5503 5503 5503 5504
5521 5521 5520 5521 5520 5519 5519 5518 5517 5517 5516 5515 5513 5512 5510 5508 5507 5505 5504 5502 5501 5499 5498 5497 5497 5497 5496 5495 5495 5495 5495 5494 5494 5494 5494 5494 5494 5494 5494 5494 5494 5494 5495 5495
5512 5512 5511 5511 5511 5510 5510 5509 5508 5507 5506 5505 5503 5502 5501 5499 5498 5496 5495 5493 5492 5490 5489 5489 5488 5488 5487 5487 5486 5486 5486 5486 5486 5486 5486 5485 5485 5485 5485 5486 5486 5486 5486 5486
5502 5502 5501 5501 5501 5501 5500 5499 5498 5497 5497 5496 5494 5493 5491 5490 5488 5486 5485 5484 5483 5482 5481 5480 5480 5480 5479 5479 5478 5478 5478 5478 5478 5478 5477 5477 5477 5477 5478 5478 5477 5477 5478 5478
5493 5492 5492 5492 5492 5491 5491 5490 5489 5488 5487 5486 5485 5483 5482 5480 5479 5477 5477 5476 5474 5474 5473 5472 5472 5472 5471 5471 5471 5471 5470 5470 5470 5470 5470 5470 5470 5470 5470 5470 5469 5469 5470 5469
5484 5484 5483 5483 5483 5482 5482 5481 5480 5479 5478 5477 5476 5475 5473 5472 5470 5469 5468 5467 5466 5466 5465 5464 5464 5464 5464 5463 5463 5463 5463 5463 5462 5462 5462 5462 5462 5462 5462 5462 5462 5462 5462 5462
5475 5475 5475 5475 5474 5474 5473 5472 5472 5471 5470 5469 5468 5467 5465 5464 5462 5461 5460 5459 5458 5458 5457 5457 5456 5456 5456 5455 5455 5455 5455 5455 5455 5455 5455 5455 5454 5454 5454 5454 5454 5454 5454 5454
5467 5467 5467 5466 5466 5465 5465 5464 5464 5463 5462 5461 5460 5459 5458 5456 5455 5454 5453 5452 5451 5450 5449 5449 5449 5448 5448 5448 5447 5448 5448 5447 5447 5447 5447 5447 5447 5447 5447 5446 5446 5446 5447 5447
5459 5459 5458 5458 5458 5457 5457 5456 5456 5455 5454 5453 5453 5452 5450 5449 5448 5447 5446 5445 5444 5443 5442 5442 5442 5441 5441 5440 5440 5440 5440 5441 5441 5440 5440 5440 5440 5440 5440 5440 5439 5439 5440 5440
5452 5451 5451 5451 5450 5450 5449 5449 5448 5447 5447 5446 5445 5444 5443 5442 5440 5439 5439 5438 5437 5436 5436 5435 5434 5434 5434 5434 5433 5433 5434 5434 5434 5434 5434 5434 5434 5434 5433 5433 5433 5433 5433 5433
5445 5445 5444 5444 5443 5443 5443 5442 5441 5441 5440 5439 5438 5437 5436 5435 5434 5433 5432 5431 5430 5429 5429 5428 5428 5428 5428 5428 5427 5427 5427 5428 5428 5428 5428 5428 5428 5427 5427 5427 5427 5427 5427 5428
5439 5438 5438 5438 5437 5437 5436 5436 5435 5434 5433 5432 5431 5430 5429 5428 5427 5426 5425 5424 5424 5423 5422 5422 5422 5421 5421 5421 5421 5422 5422 5422 5422 5422 5422 5422 5422 5422 5422 5422 5422 5422 5422 5423
5433 5432 5432 5432 5431 5431 5431 5430 5429 5428 5427 5426 5425 5424 5423 5422 5420 5419 5419 5418 5417 5417 5416 5416 5415 5415 5415 5415 5416 5416 5416 5416 5416 5417 5417 5417 5417 5417 5417 5417 5417 5417 5418 5418
5428 5427 5427 5426 5426 5425 5425 5424 5423 5422 5421 5420 5419 5418 5417 5415 5414 5414 5413 5412 5411 5411 5410 5410 5410 5410 5410 5410 5410 5410 5411 5411 5411 5412 5412 5412 5412 5412 5412 5413 5413 5413 5413 5414
5422 5422 5422 5421 5421 5420 5420 5419 5418 5417 5416 5415 5414 5413 5411 5410 5409 5408 5407 5407 5406 5406 5405 5405 5405 5404 5404 5404 5405 5405 5405 5406 5406 5407 5407 5407 5408 5408 5408 5408 5409 5409 5409 5409
5417 5417 5416 5416 5416 5415 5415 5414 5413 5412 5411 5410 5409 5407 5406 5405 5404 5404 5403 5402 5401 5401 5400 5400 5400 5399 5399 5399 5399 5400 5400 5401 5401 5402 5403 5403 5403 5404 5404 5404 5404 5404 5405 5405
5413 5412 5412 5411 5410 5410 5409 5409 5408 5407 5406 5405 5404 5402 5401 5400 5400 5399 5398 5397 5397 5396 5396 5395 5395 5394 5394 5394 5394 5395 5395 5396 5397 5397 5398 5398 5399 5399 5400 5400 5400 5400 5400 5400
5409 5408 5407 5406 5406 5405 5404 5404 5403 5402 5401 5400 5399 5398 5397 5396 5395 5394 5394 5393 5393 5392 5391 5391 5390 5390 5390 5390 5390 5390 5390 5391 5392 5393 5393 5394 5395 5395 5395 5396 5396 5396 5396 5396